Powrót do katalogu

TIANHUI 4A

AktywnyNaukaPO
NORAD 50572·PAYLOAD·🇨🇳 China

Wystrzelony Dec 29, 2021 z Jiuquan Satellite Launch Center

Loading…

Następne Przeloty (najbliższe 24 godziny)

TLE

ŚwieżeSource: Space-Track

Epoka: Sep 14, 2026, 22:40 UTC

1 50572U 21134A   26257.94492060  .00005443  00000-0  10491-3 0  9990
2 50572  88.9684 309.9432 0010960  77.3001 282.9484 15.47564929263749

Śledź TIANHUI 4A w czasie rzeczywistym z AllMySat

Download on the App Store